This demonstration page uses our WeatherBlox Daily Observations layout. Learn more.

Left ArrowRight Arrow

39.92423, -83.80882

Hourly Observations for September 9, 2015

Temp ( °F °C ) Dew Point ( °F °C ) Humidity (%) Winds ( mph kmh ) Pressure ( in mb ) Visibility ( mi km ) Precip ( " mm )
12:56 am 00:56 Clear 72 22.2 67 19.4 84 84 S 3 6 29.9 1012 10 16.0934 0 0
1:56 am 01:56 Clear 70 21.1 67 19.4 90 90 SSW 3 6 29.9 1013 10 16.0934 0 0
2:56 am 02:56 Mostly Clear 70 21.1 67 19.4 90 90 WSW 6 9 29.91 1013 10 16.0934 0 0
3:56 am 03:56 Clear 69 20.5 67 19.4 93 93 SSW 5 7 29.9 1013 10 16.0934 0 0
4:56 am 04:56 Clear 67 19.4 66 18.8 96 96 SW 3 6 29.92 1013 10 16.0934 0 0
5:56 am 05:56 Clear 67 19.4 66 18.8 96 96 WSW 3 6 29.91 1013 10 16.0934 0 0
6:56 am 06:56 Mostly Cloudy 67 19.4 67 19.4 100 100 SW 3 6 29.92 1013 10 16.0934 0 0
7:56 am 07:56 Cloudy 68 20 68 20 100 100 Calm 29.95 1014 10 16.0934 0 0
8:56 am 08:56 Mostly Cloudy 73 22.7 68 20 85 85 WNW 7 11 29.96 1015 10 16.0934 0 0
9:56 am 09:56 Mostly Cloudy 74 23.3 69 20.5 84 84 WNW 9 15 29.97 1015 10 16.0934 0 0
10:56 am 10:56 Mostly Cloudy 74 23.3 69 20.5 84 84 W 5 7 29.97 1015 10 16.0934 0 0
11:19 am 11:19 Mostly Cloudy 73 23 70 21 89 89 WSW 5 7 29.97 1015 10 16.0934 0 0
11:56 am 11:56 Mostly Cloudy 75 23.8 69 20.5 82 82 NW 5 7 29.97 1015 10 16.0934 0 0
12:04 pm 12:04 Mostly Cloudy 75 24 70 21 83 83 W 5 7 29.97 1015 10 16.0934 0 0
12:17 pm 12:17 Mostly Cloudy 75 24 70 21 83 83 WNW 5 7 29.97 1015 10 16.0934 0 0
12:56 pm 12:56 Partly Cloudy 77 25 70 21.1 79 79 W 5 7 29.96 1014 10 16.0934 0 0
1:56 pm 13:56 Mostly Cloudy 78 25.5 70 21.1 77 77 W 8 13 29.96 1014 10 16.0934 0 0
2:16 pm 14:16 Partly Cloudy 79 26 70 21 74 74 W 7 11 29.91 1013 10 16.0934 0 0
2:56 pm 14:56 Mostly Sunny 78 25.5 69 20.5 74 74 WNW 9 15 29.94 1014 10 16.0934 0 0
3:56 pm 15:56 Sunny 78 25.5 69 20.5 74 74 NW 7 11 29.92 1013 10 16.0934 0 0
4:56 pm 16:56 Mostly Sunny 77 25 70 21.1 79 79 NW 8 13 29.9 1013 10 16.0934 0 0
5:56 pm 17:56 Mostly Sunny 77 25 67 19.4 71 71 N 8 13 29.89 1012 10 16.0934 0 0
6:56 pm 18:56 Sunny 76 24.4 67 19.4 74 74 N 8 13 29.9 1013 10 16.0934 0 0
7:56 pm 19:56 Mostly Clear with Light Rain 74 23.3 66 18.8 76 76 NNW 7 11 29.92 1013 10 16.0934 0 0.0254
8:56 pm 20:56 Clear 72 22.2 67 19.4 84 84 N 7 11 29.93 1014 10 16.0934 0 0.0254
9:56 pm 21:56 Clear 71 21.6 67 19.4 87 87 N 7 11 29.94 1014 10 16.0934 0 0
10:56 pm 22:56 Clear 71 21.6 66 18.8 84 84 NNE 9 15 29.93 1014 10 16.0934 0 0
11:56 pm 23:56 Clear 70 21.1 66 18.8 87 87 NE 9 15 29.93 1014 10 16.0934 0 0

Powered by AerisWeather